Year,Month,Day,Hour,Minute,Value (Times are PST for windspeed in km/hr)
2015,11,15,00,00,23.50
2015,11,15,00,01,20.90
2015,11,15,00,02,18.50
2015,11,15,00,03,19.80
2015,11,15,00,04,19.00
2015,11,15,00,05,21.60
2015,11,15,00,06,18.80
2015,11,15,00,07,20.70
2015,11,15,00,08,21.80
2015,11,15,00,09,22.80
2015,11,15,00,10,24.20
2015,11,15,00,11,20.80
2015,11,15,00,12,17.50
2015,11,15,00,13,17.70
2015,11,15,00,14,19.60
2015,11,15,00,15,19.50
2015,11,15,00,16,20.70
2015,11,15,00,17,21.10
2015,11,15,00,18,19.90
2015,11,15,00,19,18.30
2015,11,15,00,20,21.60
2015,11,15,00,21,23.00
2015,11,15,00,22,18.80
2015,11,15,00,23,16.90
2015,11,15,00,24,19.80
2015,11,15,00,25,21.80
2015,11,15,00,26,19.60
2015,11,15,00,27,23.20
2015,11,15,00,28,22.00
2015,11,15,00,29,22.90
2015,11,15,00,30,26.30
2015,11,15,00,31,26.20
2015,11,15,00,32,24.80
2015,11,15,00,33,21.20
2015,11,15,00,34,22.70
2015,11,15,00,35,21.00
2015,11,15,00,36,23.50
2015,11,15,00,37,24.30
2015,11,15,00,38,26.60
2015,11,15,00,39,29.00
2015,11,15,00,40,23.50
2015,11,15,00,41,24.40
2015,11,15,00,42,26.50
2015,11,15,00,43,26.30
2015,11,15,00,44,28.00
2015,11,15,00,45,26.90
2015,11,15,00,46,29.40
2015,11,15,00,47,27.90
2015,11,15,00,48,28.40
2015,11,15,00,49,30.60
2015,11,15,00,50,31.10
2015,11,15,00,51,31.30
2015,11,15,00,52,28.70
2015,11,15,00,53,31.70
2015,11,15,00,54,33.60
2015,11,15,00,55,32.60
2015,11,15,00,56,31.90
2015,11,15,00,57,30.50
2015,11,15,00,58,30.00
2015,11,15,00,59,31.50
2015,11,15,01,00,33.40
2015,11,15,01,01,32.00
2015,11,15,01,02,32.30
2015,11,15,01,03,34.20
2015,11,15,01,04,35.20
2015,11,15,01,05,30.50
2015,11,15,01,06,33.80
2015,11,15,01,07,33.60
2015,11,15,01,08,33.10
2015,11,15,01,09,31.70
2015,11,15,01,10,31.60
2015,11,15,01,11,31.20
2015,11,15,01,12,31.70
2015,11,15,01,13,34.20
2015,11,15,01,14,32.30
2015,11,15,01,15,31.80
2015,11,15,01,16,31.30
2015,11,15,01,17,31.90
2015,11,15,01,18,33.40
2015,11,15,01,19,32.00
2015,11,15,01,20,32.10
2015,11,15,01,21,36.90
2015,11,15,01,22,35.30
2015,11,15,01,23,33.90
2015,11,15,01,24,30.70
2015,11,15,01,25,33.80
2015,11,15,01,26,38.00
2015,11,15,01,27,34.40
2015,11,15,01,28,29.60
2015,11,15,01,29,32.30
2015,11,15,01,30,32.50
2015,11,15,01,31,29.10
2015,11,15,01,32,30.30
2015,11,15,01,33,31.20
2015,11,15,01,34,28.30
2015,11,15,01,35,33.30
2015,11,15,01,36,31.90
2015,11,15,01,37,31.20
2015,11,15,01,38,34.40
2015,11,15,01,39,29.20
2015,11,15,01,40,29.80
2015,11,15,01,41,32.80
2015,11,15,01,42,25.30
2015,11,15,01,43,28.00
2015,11,15,01,44,30.30
2015,11,15,01,45,31.50
2015,11,15,01,46,33.00
2015,11,15,01,47,29.70
2015,11,15,01,48,27.30
2015,11,15,01,49,26.90
2015,11,15,01,50,22.50
2015,11,15,01,51,22.20
2015,11,15,01,52,23.60
2015,11,15,01,53,26.60
2015,11,15,01,54,28.00
2015,11,15,01,55,22.10
2015,11,15,01,56,22.40
2015,11,15,01,57,23.30
2015,11,15,01,58,25.90
2015,11,15,01,59,29.00
2015,11,15,02,00,29.60
2015,11,15,02,01,30.10
2015,11,15,02,02,34.10
2015,11,15,02,03,33.70
2015,11,15,02,04,36.40
2015,11,15,02,05,34.20
2015,11,15,02,06,28.60
2015,11,15,02,07,29.60
2015,11,15,02,08,30.70
2015,11,15,02,09,24.00
2015,11,15,02,10,27.60
2015,11,15,02,11,31.50
2015,11,15,02,12,29.70
2015,11,15,02,13,29.90
2015,11,15,02,14,30.30
2015,11,15,02,15,32.30
2015,11,15,02,16,26.20
2015,11,15,02,17,25.80
2015,11,15,02,18,28.00
2015,11,15,02,19,29.80
2015,11,15,02,20,28.50
2015,11,15,02,21,30.00
2015,11,15,02,22,31.80
2015,11,15,02,23,34.10
2015,11,15,02,24,31.50
2015,11,15,02,25,28.40
2015,11,15,02,26,29.10
2015,11,15,02,27,33.60
2015,11,15,02,28,27.60
2015,11,15,02,29,29.90
2015,11,15,02,30,29.80
2015,11,15,02,31,27.60
2015,11,15,02,32,29.50
2015,11,15,02,33,31.60
2015,11,15,02,34,28.80
2015,11,15,02,35,27.50
2015,11,15,02,36,30.50
2015,11,15,02,37,28.70
2015,11,15,02,38,24.60
2015,11,15,02,39,23.90
2015,11,15,02,40,29.50
2015,11,15,02,41,31.90
2015,11,15,02,42,27.60
2015,11,15,02,43,30.40
2015,11,15,02,44,28.30
2015,11,15,02,45,25.50
2015,11,15,02,46,27.80
2015,11,15,02,47,29.50
2015,11,15,02,48,27.80
2015,11,15,02,49,25.60
2015,11,15,02,50,25.50
2015,11,15,02,51,27.10
2015,11,15,02,52,27.10
2015,11,15,02,53,29.10
2015,11,15,02,54,24.70
2015,11,15,02,55,26.10
2015,11,15,02,56,26.50
2015,11,15,02,57,26.00
2015,11,15,02,58,25.20
2015,11,15,02,59,29.70
2015,11,15,03,00,27.40
2015,11,15,03,01,25.10
2015,11,15,03,02,23.50
2015,11,15,03,03,25.40
2015,11,15,03,04,22.00
2015,11,15,03,05,23.00
2015,11,15,03,06,25.10
2015,11,15,03,07,21.60
2015,11,15,03,08,28.70
2015,11,15,03,09,31.50
2015,11,15,03,10,32.20
2015,11,15,03,11,30.30
2015,11,15,03,12,32.80
2015,11,15,03,13,32.20
2015,11,15,03,14,30.40
2015,11,15,03,15,32.00
2015,11,15,03,16,30.80
2015,11,15,03,17,29.30
2015,11,15,03,18,29.90
2015,11,15,03,19,28.20
2015,11,15,03,20,28.60
2015,11,15,03,21,29.60
2015,11,15,03,22,29.60
2015,11,15,03,23,27.60
2015,11,15,03,24,28.20
2015,11,15,03,25,24.80
2015,11,15,03,26,24.50
2015,11,15,03,27,23.20
2015,11,15,03,28,24.30
2015,11,15,03,29,24.50
2015,11,15,03,30,21.10
2015,11,15,03,31,22.40
2015,11,15,03,32,21.10
2015,11,15,03,33,21.30
2015,11,15,03,34,20.10
2015,11,15,03,35,20.80
2015,11,15,03,36,20.50
2015,11,15,03,37,22.50
2015,11,15,03,38,22.60
2015,11,15,03,39,22.50
2015,11,15,03,40,21.20
2015,11,15,03,41,17.90
2015,11,15,03,42,17.80
2015,11,15,03,43,18.00
2015,11,15,03,44,18.20
2015,11,15,03,45,19.50
2015,11,15,03,46,19.40
2015,11,15,03,47,18.50
2015,11,15,03,48,16.60
2015,11,15,03,49,14.80
2015,11,15,03,50,14.60
2015,11,15,03,51,16.30
2015,11,15,03,52,16.00
2015,11,15,03,53,14.10
2015,11,15,03,54,11.90
2015,11,15,03,55,10.40
2015,11,15,03,56,10.10
2015,11,15,03,57,13.00
2015,11,15,03,58,12.60
2015,11,15,03,59,15.20
2015,11,15,04,00,20.00
2015,11,15,04,01,19.40
2015,11,15,04,02,21.80
2015,11,15,04,03,25.40
2015,11,15,04,04,27.00
2015,11,15,04,05,22.90
2015,11,15,04,06,24.40
2015,11,15,04,07,25.70
2015,11,15,04,08,25.90
2015,11,15,04,09,28.60
2015,11,15,04,10,26.90
2015,11,15,04,11,26.80
2015,11,15,04,12,29.40
2015,11,15,04,13,28.50
2015,11,15,04,14,24.20
2015,11,15,04,15,25.80
2015,11,15,04,16,23.40
2015,11,15,04,17,26.10
2015,11,15,04,18,28.00
2015,11,15,04,19,26.80
2015,11,15,04,20,26.40
2015,11,15,04,21,24.10
2015,11,15,04,22,27.10
2015,11,15,04,23,30.10
2015,11,15,04,24,33.00
2015,11,15,04,25,31.10
2015,11,15,04,26,32.20
2015,11,15,04,27,30.60
2015,11,15,04,28,34.00
2015,11,15,04,29,31.60
2015,11,15,04,30,34.50
2015,11,15,04,31,33.40
2015,11,15,04,32,32.30
2015,11,15,04,33,31.60
2015,11,15,04,34,32.60
2015,11,15,04,35,33.20
2015,11,15,04,36,31.50
2015,11,15,04,37,32.20
2015,11,15,04,38,34.10
2015,11,15,04,39,33.30
2015,11,15,04,40,29.40
2015,11,15,04,41,30.40
2015,11,15,04,42,29.00
2015,11,15,04,43,33.90
2015,11,15,04,44,31.20
2015,11,15,04,45,32.60
2015,11,15,04,46,32.20
2015,11,15,04,47,31.00
2015,11,15,04,48,28.40
2015,11,15,04,49,29.50
2015,11,15,04,50,27.60
2015,11,15,04,51,28.50
2015,11,15,04,52,29.40
2015,11,15,04,53,29.40
2015,11,15,04,54,29.90
2015,11,15,04,55,30.50
2015,11,15,04,56,31.10
2015,11,15,04,57,31.70
2015,11,15,04,58,31.80
2015,11,15,04,59,30.60
2015,11,15,05,00,33.40
2015,11,15,05,01,31.90
2015,11,15,05,02,29.60
2015,11,15,05,03,31.00
2015,11,15,05,04,31.60
2015,11,15,05,05,31.20
2015,11,15,05,06,30.70
2015,11,15,05,07,30.90
2015,11,15,05,08,29.00
2015,11,15,05,09,31.10
2015,11,15,05,10,32.80
2015,11,15,05,11,31.10
2015,11,15,05,12,29.10
2015,11,15,05,13,30.10
2015,11,15,05,14,27.60
2015,11,15,05,15,27.70
2015,11,15,05,16,25.80
2015,11,15,05,17,25.20
2015,11,15,05,18,23.60
2015,11,15,05,19,23.10
2015,11,15,05,20,24.10
2015,11,15,05,21,23.40
2015,11,15,05,22,23.30
2015,11,15,05,23,22.60
2015,11,15,05,24,23.20
2015,11,15,05,25,26.10
2015,11,15,05,26,25.00
2015,11,15,05,27,22.80
2015,11,15,05,28,21.20
2015,11,15,05,29,23.20
2015,11,15,05,30,27.00
2015,11,15,05,31,23.80
2015,11,15,05,32,25.70
2015,11,15,05,33,23.00
2015,11,15,05,34,20.40
2015,11,15,05,35,20.30
2015,11,15,05,36,22.00
2015,11,15,05,37,22.30
2015,11,15,05,38,21.90
2015,11,15,05,39,22.70
2015,11,15,05,40,22.20
2015,11,15,05,41,21.90
2015,11,15,05,42,20.20
2015,11,15,05,43,23.20
2015,11,15,05,44,19.90
2015,11,15,05,45,20.80
2015,11,15,05,46,22.80
2015,11,15,05,47,21.90
2015,11,15,05,48,19.50
2015,11,15,05,49,19.80
2015,11,15,05,50,19.70
2015,11,15,05,51,18.20
2015,11,15,05,52,18.80
2015,11,15,05,53,18.30
2015,11,15,05,54,20.20
2015,11,15,05,55,22.00
2015,11,15,05,56,20.10
2015,11,15,05,57,19.60
2015,11,15,05,58,19.10
2015,11,15,05,59,20.80
2015,11,15,06,00,18.70
2015,11,15,06,01,19.10
2015,11,15,06,02,17.80
2015,11,15,06,03,19.10
2015,11,15,06,04,20.50
2015,11,15,06,05,19.90
2015,11,15,06,06,19.40
2015,11,15,06,07,17.60
2015,11,15,06,08,20.20
2015,11,15,06,09,21.00
2015,11,15,06,10,20.30
2015,11,15,06,11,20.50
2015,11,15,06,12,21.00
2015,11,15,06,13,19.40
2015,11,15,06,14,19.10
2015,11,15,06,15,18.50
2015,11,15,06,16,17.60
2015,11,15,06,17,18.60
2015,11,15,06,18,18.50
2015,11,15,06,19,17.40
2015,11,15,06,20,17.70
2015,11,15,06,21,18.80
2015,11,15,06,22,19.70
2015,11,15,06,23,20.60
2015,11,15,06,24,19.90
2015,11,15,06,25,20.30
2015,11,15,06,26,19.40
2015,11,15,06,27,20.50
2015,11,15,06,28,19.60
2015,11,15,06,29,21.90
2015,11,15,06,30,21.10
2015,11,15,06,31,22.30
2015,11,15,06,32,20.90
2015,11,15,06,33,19.70
2015,11,15,06,34,22.20
2015,11,15,06,35,21.20
2015,11,15,06,36,19.90
2015,11,15,06,37,19.90
2015,11,15,06,38,21.10
2015,11,15,06,39,20.80
2015,11,15,06,40,19.10
2015,11,15,06,41,20.80
2015,11,15,06,42,22.20
2015,11,15,06,43,20.40
2015,11,15,06,44,21.70
2015,11,15,06,45,19.60
2015,11,15,06,46,19.10
2015,11,15,06,47,22.50
2015,11,15,06,48,21.50
2015,11,15,06,49,21.40
2015,11,15,06,50,22.10
2015,11,15,06,51,20.30
2015,11,15,06,52,20.90
2015,11,15,06,53,21.10
2015,11,15,06,54,23.00
2015,11,15,06,55,23.20
2015,11,15,06,56,22.80
2015,11,15,06,57,22.40
2015,11,15,06,58,23.90
2015,11,15,06,59,24.10
2015,11,15,07,00,25.50
2015,11,15,07,01,23.80
2015,11,15,07,02,23.80
2015,11,15,07,03,23.10
2015,11,15,07,04,23.20
2015,11,15,07,05,23.00
2015,11,15,07,06,22.00
2015,11,15,07,07,22.40
2015,11,15,07,08,22.50
2015,11,15,07,09,20.40
2015,11,15,07,10,17.30
2015,11,15,07,11,21.00
2015,11,15,07,12,21.80
2015,11,15,07,13,20.00
2015,11,15,07,14,18.60
2015,11,15,07,15,18.10
2015,11,15,07,16,17.90
2015,11,15,07,17,18.50
2015,11,15,07,18,18.50
2015,11,15,07,19,15.40
2015,11,15,07,20,15.10
2015,11,15,07,21,14.10
2015,11,15,07,22,12.90
2015,11,15,07,23,15.30
2015,11,15,07,24,15.20
2015,11,15,07,25,16.30
2015,11,15,07,26,16.70
2015,11,15,07,27,16.70
2015,11,15,07,28,17.40
2015,11,15,07,29,17.10
2015,11,15,07,30,19.20
2015,11,15,07,31,20.80
2015,11,15,07,32,20.80
2015,11,15,07,33,19.20
2015,11,15,07,34,20.20
2015,11,15,07,35,20.10
2015,11,15,07,36,20.10
2015,11,15,07,37,19.10
2015,11,15,07,38,18.70
2015,11,15,07,39,20.30
2015,11,15,07,40,20.40
2015,11,15,07,41,19.00
2015,11,15,07,42,19.50
2015,11,15,07,43,19.50
2015,11,15,07,44,18.40
2015,11,15,07,45,17.20
2015,11,15,07,46,17.60
2015,11,15,07,47,14.60
2015,11,15,07,48,16.90
2015,11,15,07,49,14.90
2015,11,15,07,50,18.40
2015,11,15,07,51,18.40
2015,11,15,07,52,17.20
2015,11,15,07,53,14.80
2015,11,15,07,54,16.60
2015,11,15,07,55,18.80
2015,11,15,07,56,20.00
2015,11,15,07,57,21.80
2015,11,15,07,58,24.30
2015,11,15,07,59,26.00
2015,11,15,08,00,21.80
2015,11,15,08,01,19.20
2015,11,15,08,02,18.10
2015,11,15,08,03,21.50
2015,11,15,08,04,22.60
2015,11,15,08,05,22.00
2015,11,15,08,06,21.70
2015,11,15,08,07,19.30
2015,11,15,08,08,18.90
2015,11,15,08,09,24.90
2015,11,15,08,10,23.80
2015,11,15,08,11,21.50
2015,11,15,08,12,22.50
2015,11,15,08,13,22.90
2015,11,15,08,14,22.70
2015,11,15,08,15,24.50
2015,11,15,08,16,26.10
2015,11,15,08,17,26.70
2015,11,15,08,18,26.90
2015,11,15,08,19,27.40
2015,11,15,08,20,27.40
2015,11,15,08,21,27.30
2015,11,15,08,22,27.00
2015,11,15,08,23,25.10
2015,11,15,08,24,26.60
2015,11,15,08,25,26.20
2015,11,15,08,26,26.50
2015,11,15,08,27,26.10
2015,11,15,08,28,28.20
2015,11,15,08,29,27.70
2015,11,15,08,30,27.10
2015,11,15,08,31,28.60
2015,11,15,08,32,27.10
2015,11,15,08,33,27.10
2015,11,15,08,34,25.90
2015,11,15,08,35,29.80
2015,11,15,08,36,28.60
2015,11,15,08,37,28.60
2015,11,15,08,38,27.90
2015,11,15,08,39,28.40
2015,11,15,08,40,27.90
2015,11,15,08,41,26.70
2015,11,15,08,42,26.80
2015,11,15,08,43,30.50
2015,11,15,08,44,28.70
2015,11,15,08,45,26.30
2015,11,15,08,46,26.70
2015,11,15,08,47,24.40
2015,11,15,08,48,24.00
2015,11,15,08,49,23.30
2015,11,15,08,50,27.60
2015,11,15,08,51,27.40
2015,11,15,08,52,25.00
2015,11,15,08,53,24.80
2015,11,15,08,54,25.00
2015,11,15,08,55,24.70
2015,11,15,08,56,24.10
2015,11,15,08,57,25.10
2015,11,15,08,58,25.70
2015,11,15,08,59,27.80
2015,11,15,09,00,26.20
2015,11,15,09,01,25.50
2015,11,15,09,02,28.60
2015,11,15,09,03,27.90
2015,11,15,09,04,28.90
2015,11,15,09,05,29.10
2015,11,15,09,06,26.80
2015,11,15,09,07,26.10
2015,11,15,09,08,27.00
2015,11,15,09,09,27.00
2015,11,15,09,10,28.20
2015,11,15,09,11,28.10
2015,11,15,09,12,27.40
2015,11,15,09,13,29.40
2015,11,15,09,14,26.80
2015,11,15,09,15,26.20
2015,11,15,09,16,26.10
2015,11,15,09,17,26.10
2015,11,15,09,18,24.20
2015,11,15,09,19,25.60
2015,11,15,09,20,27.60
2015,11,15,09,21,26.00
2015,11,15,09,22,26.10
2015,11,15,09,23,28.40
2015,11,15,09,24,29.20
2015,11,15,09,25,32.30
2015,11,15,09,26,33.30
2015,11,15,09,27,32.60
2015,11,15,09,28,31.40
2015,11,15,09,29,31.50
2015,11,15,09,30,30.40
2015,11,15,09,31,32.30
2015,11,15,09,32,32.70
2015,11,15,09,33,31.10
2015,11,15,09,34,35.60
2015,11,15,09,35,32.40
2015,11,15,09,36,32.60
2015,11,15,09,37,33.00
2015,11,15,09,38,34.20
2015,11,15,09,39,33.00
2015,11,15,09,40,33.30
2015,11,15,09,41,33.40
2015,11,15,09,42,34.90
2015,11,15,09,43,35.20
2015,11,15,09,44,36.40
2015,11,15,09,45,36.80
2015,11,15,09,46,35.40
2015,11,15,09,47,35.10
2015,11,15,09,48,31.90
2015,11,15,09,49,30.40
2015,11,15,09,50,31.00
2015,11,15,09,51,30.90
2015,11,15,09,52,28.70
2015,11,15,09,53,33.10
2015,11,15,09,54,37.10
2015,11,15,09,55,38.50
2015,11,15,09,56,38.90
2015,11,15,09,57,39.30
2015,11,15,09,58,42.90
2015,11,15,09,59,47.60
2015,11,15,10,00,48.30
2015,11,15,10,01,47.70
2015,11,15,10,02,49.70
2015,11,15,10,03,47.20
2015,11,15,10,04,43.70
2015,11,15,10,05,44.30
2015,11,15,10,06,50.90
2015,11,15,10,07,48.40
2015,11,15,10,08,49.10
2015,11,15,10,09,46.80
2015,11,15,10,10,49.70
2015,11,15,10,11,45.10
2015,11,15,10,12,48.60
2015,11,15,10,13,49.70
2015,11,15,10,14,46.40
2015,11,15,10,15,48.90
2015,11,15,10,16,46.80
2015,11,15,10,17,48.80
2015,11,15,10,18,46.80
2015,11,15,10,19,49.70
2015,11,15,10,20,48.10
2015,11,15,10,21,45.30
2015,11,15,10,22,48.30
2015,11,15,10,23,50.20
2015,11,15,10,24,47.20
2015,11,15,10,25,47.60
2015,11,15,10,26,44.10
2015,11,15,10,27,47.30
2015,11,15,10,28,47.90
2015,11,15,10,29,48.10
2015,11,15,10,30,47.50
2015,11,15,10,31,43.60
2015,11,15,10,32,44.10
2015,11,15,10,33,44.40
2015,11,15,10,34,42.70
2015,11,15,10,35,38.90
2015,11,15,10,36,43.60
2015,11,15,10,37,43.60
2015,11,15,10,38,41.90
2015,11,15,10,39,40.10
2015,11,15,10,40,40.50
2015,11,15,10,41,39.70
2015,11,15,10,42,40.70
2015,11,15,10,43,43.40
2015,11,15,10,44,40.10
2015,11,15,10,45,39.50
2015,11,15,10,46,41.10
2015,11,15,10,47,40.00
2015,11,15,10,48,40.40
2015,11,15,10,49,41.60
2015,11,15,10,50,39.80
2015,11,15,10,51,44.30
2015,11,15,10,52,43.60
2015,11,15,10,53,46.10
2015,11,15,10,54,44.20
2015,11,15,10,55,40.30
2015,11,15,10,56,45.10
2015,11,15,10,57,43.20
2015,11,15,10,58,47.60
2015,11,15,10,59,48.40
2015,11,15,11,00,48.40
2015,11,15,11,01,51.00
2015,11,15,11,02,45.70
2015,11,15,11,03,42.50
2015,11,15,11,04,45.70
2015,11,15,11,05,44.70
2015,11,15,11,06,45.10
2015,11,15,11,07,44.10
2015,11,15,11,08,46.80
2015,11,15,11,09,48.70
2015,11,15,11,10,45.90
2015,11,15,11,11,49.80
2015,11,15,11,12,49.40
2015,11,15,11,13,44.90
2015,11,15,11,14,50.20
2015,11,15,11,15,51.80
2015,11,15,11,16,54.20
2015,11,15,11,17,44.80
2015,11,15,11,18,44.80
2015,11,15,11,19,43.80
2015,11,15,11,20,46.70
2015,11,15,11,21,45.70
2015,11,15,11,22,51.50
2015,11,15,11,23,48.00
2015,11,15,11,24,43.40
2015,11,15,11,25,43.60
2015,11,15,11,26,43.00
2015,11,15,11,27,46.80
2015,11,15,11,28,45.50
2015,11,15,11,29,48.70
2015,11,15,11,30,50.90
2015,11,15,11,31,46.70
2015,11,15,11,32,44.10
2015,11,15,11,33,47.40
2015,11,15,11,34,45.40
2015,11,15,11,35,43.20
2015,11,15,11,36,43.50
2015,11,15,11,37,41.30
2015,11,15,11,38,41.50
2015,11,15,11,39,39.50
2015,11,15,11,40,39.20
2015,11,15,11,41,40.60
2015,11,15,11,42,44.30
2015,11,15,11,43,40.80
2015,11,15,11,44,39.00
2015,11,15,11,45,39.00
2015,11,15,11,46,45.00
2015,11,15,11,47,45.20
2015,11,15,11,48,38.90
2015,11,15,11,49,43.00
2015,11,15,11,50,42.10
2015,11,15,11,51,39.80
2015,11,15,11,52,37.90
2015,11,15,11,53,36.00
2015,11,15,11,54,39.00
2015,11,15,11,55,38.60
2015,11,15,11,56,33.60
2015,11,15,11,57,36.60
2015,11,15,11,58,33.10
2015,11,15,11,59,35.40
2015,11,15,12,00,39.20
2015,11,15,12,01,41.20
2015,11,15,12,02,40.30
2015,11,15,12,03,41.20
2015,11,15,12,04,43.10
2015,11,15,12,05,44.10
2015,11,15,12,06,42.60
2015,11,15,12,07,41.80
2015,11,15,12,08,40.50
2015,11,15,12,09,39.80
2015,11,15,12,10,38.10
2015,11,15,12,11,39.00
2015,11,15,12,12,37.60
2015,11,15,12,13,38.00
2015,11,15,12,14,45.40
2015,11,15,12,15,41.80
2015,11,15,12,16,43.90
2015,11,15,12,17,40.50
2015,11,15,12,18,39.20
2015,11,15,12,19,40.70
2015,11,15,12,20,38.90
2015,11,15,12,21,38.90
2015,11,15,12,22,36.90
2015,11,15,12,23,35.10
2015,11,15,12,24,37.20
2015,11,15,12,25,35.70
2015,11,15,12,26,34.80
2015,11,15,12,27,36.40
2015,11,15,12,28,39.30
2015,11,15,12,29,35.40
2015,11,15,12,30,35.60
2015,11,15,12,31,37.70
2015,11,15,12,32,36.00
2015,11,15,12,33,40.50
2015,11,15,12,34,42.60
2015,11,15,12,35,39.80
2015,11,15,12,36,40.50
2015,11,15,12,37,42.40
2015,11,15,12,38,41.00
2015,11,15,12,39,35.30
2015,11,15,12,40,33.50
2015,11,15,12,41,35.90
2015,11,15,12,42,36.60
2015,11,15,12,43,36.60
2015,11,15,12,44,37.20
2015,11,15,12,45,37.00
2015,11,15,12,46,35.80
2015,11,15,12,47,35.10
2015,11,15,12,48,36.40
2015,11,15,12,49,34.40
2015,11,15,12,50,36.80
2015,11,15,12,51,42.70
2015,11,15,12,52,42.90
2015,11,15,12,53,40.70
2015,11,15,12,54,40.50
2015,11,15,12,55,42.00
2015,11,15,12,56,41.80
2015,11,15,12,57,39.10
2015,11,15,12,58,40.90
2015,11,15,12,59,35.50
2015,11,15,13,00,36.80
2015,11,15,13,01,37.30
2015,11,15,13,02,36.70
2015,11,15,13,03,32.60
2015,11,15,13,04,36.00
2015,11,15,13,05,39.10
2015,11,15,13,06,36.00
2015,11,15,13,07,37.70
2015,11,15,13,08,35.00
2015,11,15,13,09,33.00
2015,11,15,13,10,35.20
2015,11,15,13,11,33.00
2015,11,15,13,12,32.20
2015,11,15,13,13,36.70
2015,11,15,13,14,36.40
2015,11,15,13,15,34.60
2015,11,15,13,16,31.00
2015,11,15,13,17,27.90
2015,11,15,13,18,33.10
2015,11,15,13,19,34.90
2015,11,15,13,20,32.30
2015,11,15,13,21,34.20
2015,11,15,13,22,35.20
2015,11,15,13,23,38.30
2015,11,15,13,24,38.30
2015,11,15,13,25,37.20
2015,11,15,13,26,38.60
2015,11,15,13,27,41.40
2015,11,15,13,28,37.50
2015,11,15,13,29,36.80
2015,11,15,13,30,34.30
2015,11,15,13,31,34.60
2015,11,15,13,32,40.40
2015,11,15,13,33,38.60
2015,11,15,13,34,35.00
2015,11,15,13,35,36.20
2015,11,15,13,36,34.00
2015,11,15,13,37,33.90
2015,11,15,13,38,35.20
2015,11,15,13,39,34.90
2015,11,15,13,40,36.80
2015,11,15,13,41,38.80
2015,11,15,13,42,38.70
2015,11,15,13,43,41.20
2015,11,15,13,44,37.40
2015,11,15,13,45,36.80
2015,11,15,13,46,37.90
2015,11,15,13,47,38.50
2015,11,15,13,48,44.60
2015,11,15,13,49,45.30
2015,11,15,13,50,41.00
2015,11,15,13,51,37.50
2015,11,15,13,52,36.60
2015,11,15,13,53,41.20
2015,11,15,13,54,40.40
2015,11,15,13,55,42.40
2015,11,15,13,56,42.20
2015,11,15,13,57,42.80
2015,11,15,13,58,38.70
2015,11,15,13,59,41.60
2015,11,15,14,00,42.80
2015,11,15,14,01,43.50
2015,11,15,14,02,49.00
2015,11,15,14,03,49.20
2015,11,15,14,04,46.20
2015,11,15,14,05,43.10
2015,11,15,14,06,43.10
2015,11,15,14,07,52.20
2015,11,15,14,08,52.30
2015,11,15,14,09,51.00
2015,11,15,14,10,49.40
2015,11,15,14,11,47.00
2015,11,15,14,12,48.80
2015,11,15,14,13,42.30
2015,11,15,14,14,40.40
2015,11,15,14,15,47.10
2015,11,15,14,16,50.80
2015,11,15,14,17,50.80
2015,11,15,14,18,50.00
2015,11,15,14,19,51.40
2015,11,15,14,20,49.20
2015,11,15,14,21,48.00
2015,11,15,14,22,51.20
2015,11,15,14,23,49.90
2015,11,15,14,24,49.00
2015,11,15,14,25,49.30
2015,11,15,14,26,47.50
2015,11,15,14,27,47.50
2015,11,15,14,28,48.70
2015,11,15,14,29,46.00
2015,11,15,14,30,44.80
2015,11,15,14,31,38.20
2015,11,15,14,32,45.10
2015,11,15,14,33,44.40
2015,11,15,14,34,42.40
2015,11,15,14,35,29.70
2015,11,15,14,36,27.00
2015,11,15,14,37,27.40
2015,11,15,14,38,27.40
2015,11,15,14,39,27.40
2015,11,15,14,40,27.40
2015,11,15,14,41,27.30
2015,11,15,14,42,20.50
2015,11,15,14,43,16.20
2015,11,15,14,44,15.80
2015,11,15,14,45,21.40
2015,11,15,14,46,21.20
2015,11,15,14,47,16.40
2015,11,15,14,48,19.20
2015,11,15,14,49,13.40
2015,11,15,14,50,19.00
2015,11,15,14,51,20.50
2015,11,15,14,52,11.60
2015,11,15,14,53,6.40
2015,11,15,14,54,4.70
2015,11,15,14,55,7.60
2015,11,15,14,56,11.90
2015,11,15,14,57,16.60
2015,11,15,14,58,14.50
2015,11,15,14,59,16.80
2015,11,15,15,00,15.90
2015,11,15,15,01,14.10
2015,11,15,15,02,11.30
2015,11,15,15,03,7.80
2015,11,15,15,04,6.50
2015,11,15,15,05,5.00
2015,11,15,15,06,4.00
2015,11,15,15,07,4.90
2015,11,15,15,08,6.80
2015,11,15,15,09,2.10
2015,11,15,15,10,5.20
2015,11,15,15,11,6.80
2015,11,15,15,12,8.90
2015,11,15,15,13,3.50
2015,11,15,15,14,3.60
2015,11,15,15,15,6.40
2015,11,15,15,16,6.40
2015,11,15,15,17,5.70
2015,11,15,15,18,7.10
2015,11,15,15,19,15.10
2015,11,15,15,20,14.90
2015,11,15,15,21,15.60
2015,11,15,15,22,21.50
2015,11,15,15,23,22.50
2015,11,15,15,24,15.20
2015,11,15,15,25,10.30
2015,11,15,15,26,4.70
2015,11,15,15,27,8.40
2015,11,15,15,28,6.40
2015,11,15,15,29,3.10
2015,11,15,15,30,5.10
2015,11,15,15,31,7.60
2015,11,15,15,32,10.40
2015,11,15,15,33,8.80
2015,11,15,15,34,6.20
2015,11,15,15,35,6.00
2015,11,15,15,36,6.40
2015,11,15,15,37,10.20
2015,11,15,15,38,10.30
2015,11,15,15,39,9.50
2015,11,15,15,40,6.90
2015,11,15,15,41,9.30
2015,11,15,15,42,9.30
2015,11,15,15,43,6.60
2015,11,15,15,44,4.50
2015,11,15,15,45,3.60
2015,11,15,15,46,1.90
2015,11,15,15,47,7.90
2015,11,15,15,48,9.70
2015,11,15,15,49,6.00
2015,11,15,15,50,2.70
2015,11,15,15,51,3.10
2015,11,15,15,52,0.70
2015,11,15,15,53,4.30
2015,11,15,15,54,6.30
2015,11,15,15,55,3.50
2015,11,15,15,56,2.10
2015,11,15,15,57,9.00
2015,11,15,15,58,10.70
2015,11,15,15,59,17.10
2015,11,15,16,00,18.30
2015,11,15,16,01,13.60
2015,11,15,16,02,18.20
2015,11,15,16,03,19.50
2015,11,15,16,04,27.10
2015,11,15,16,05,27.90
2015,11,15,16,06,27.40
2015,11,15,16,07,27.80
2015,11,15,16,08,26.00
2015,11,15,16,09,26.20
2015,11,15,16,10,25.30
2015,11,15,16,11,26.70
2015,11,15,16,12,26.00
2015,11,15,16,13,24.50
2015,11,15,16,14,22.30
2015,11,15,16,15,22.10
2015,11,15,16,16,21.60
2015,11,15,16,17,22.40
2015,11,15,16,18,22.60
2015,11,15,16,19,24.50
2015,11,15,16,20,24.90
2015,11,15,16,21,26.40
2015,11,15,16,22,24.90
2015,11,15,16,23,23.20
2015,11,15,16,24,24.10
2015,11,15,16,25,25.30
2015,11,15,16,26,23.10
2015,11,15,16,27,14.20
2015,11,15,16,28,10.30
2015,11,15,16,29,8.20
2015,11,15,16,30,6.10
2015,11,15,16,31,6.30
2015,11,15,16,32,10.00
2015,11,15,16,33,8.20
2015,11,15,16,34,7.80
2015,11,15,16,35,7.50
2015,11,15,16,36,9.70
2015,11,15,16,37,8.70
2015,11,15,16,38,6.80
2015,11,15,16,39,10.10
2015,11,15,16,40,8.40
2015,11,15,16,41,10.60
2015,11,15,16,42,12.00
2015,11,15,16,43,10.00
2015,11,15,16,44,6.70
2015,11,15,16,45,11.60
2015,11,15,16,46,10.90
2015,11,15,16,47,14.50
2015,11,15,16,48,9.00
2015,11,15,16,49,9.80
2015,11,15,16,50,14.20
2015,11,15,16,51,15.40
2015,11,15,16,52,11.90
2015,11,15,16,53,12.10
2015,11,15,16,54,10.40
2015,11,15,16,55,8.50
2015,11,15,16,56,9.20
2015,11,15,16,57,8.40
2015,11,15,16,58,7.20
2015,11,15,16,59,6.20
2015,11,15,17,00,6.80
2015,11,15,17,01,8.10
2015,11,15,17,02,7.40
2015,11,15,17,03,6.50
2015,11,15,17,04,7.50
2015,11,15,17,05,7.60
2015,11,15,17,06,7.10
2015,11,15,17,07,5.90
2015,11,15,17,08,6.00
2015,11,15,17,09,6.40
2015,11,15,17,10,6.80
2015,11,15,17,11,7.10
2015,11,15,17,12,6.60
2015,11,15,17,13,4.80
2015,11,15,17,14,5.20
2015,11,15,17,15,4.30
2015,11,15,17,16,5.40
2015,11,15,17,17,5.00
2015,11,15,17,18,5.50
2015,11,15,17,19,5.20
2015,11,15,17,20,6.40
2015,11,15,17,21,6.40
2015,11,15,17,22,6.10
2015,11,15,17,23,5.40